EW4174 Weather Reports


Display with metric or nautical units.
time (UTC)temp
F
wind
direction
speed
MPH
gust
MPH
rain 1hr
in
rain 24hr
in
rain mn
in
humidity
%
barometer
mb
20210924220026 85 138 5.0 11.0 0.00 0.00 0.00 37 1014.8
20210924214530 85 185 4.0 12.0 0.00 0.00 0.00 36 1014.8
20210924213030 85 128 8.0 11.0 0.00 0.00 0.00 36 1015.0
20210924211534 85 46 4.0 10.0 0.00 0.00 0.00 38 1015.1
20210924210022 85 135 8.0 12.0 0.00 0.00 0.00 37 1015.2
20210924204515 85 109 3.0 14.0 0.00 0.00 0.00 38 1015.0
20210924203015 85 96 5.0 12.0 0.00 0.00 0.00 37 1015.1
20210924201530 85 93 6.0 10.0 0.00 0.00 0.00 37 1015.3
20210924200014 85 90 4.0 12.0 0.00 0.00 0.00 37 1015.5
20210924194504 85 108 6.0 15.0 0.00 0.00 0.00 37 1015.9
20210924193006 85 44 6.0 17.0 0.00 0.00 0.00 39 1016.0
20210924191747 84 102 7.0 12.0 0.00 0.00 0.00 38 1016.3
20210924190209 83 86 6.0 10.0 0.00 0.00 0.00 39 1016.5
20210924184653 83 112 4.0 11.0 0.00 0.00 0.00 42 1016.6
20210924183115 83 69 3.0 10.0 0.00 0.00 0.00 41 1016.9
20210924181651 82 98 6.0 12.0 0.00 0.00 0.00 42 1017.2
20210924180138 81 140 1.0 11.0 0.00 0.00 0.00 44 1017.4
20210924174607 82 88 7.0 12.0 0.00 0.00 0.00 43 1017.6
20210924173112 81 101 5.0 10.0 0.00 0.00 0.00 45 1017.7
20210924171559 80 144 4.0 10.0 0.00 0.00 0.00 46 1017.9
20210924170058 80 142 7.0 12.0 0.00 0.00 0.00 48 1018.2
20210924164543 79 96 8.0 14.0 0.00 0.00 0.00 48 1018.2
20210924163047 78 145 5.0 11.0 0.00 0.00 0.00 50 1018.3
20210924161613 78 120 5.0 14.0 0.00 0.00 0.00 52 1018.5
20210924160127 77 121 3.0 16.0 0.00 0.00 0.00 55 1018.4
20210924154547 76 130 7.0 11.0 0.00 0.00 0.00 56 1018.4
20210924153110 75 164 5.0 10.0 0.00 0.00 0.00 60 1018.5
20210924151544 74 83 3.0 7.0 0.00 0.00 0.00 63 1018.6
20210924150033 73 101 3.0 9.0 0.00 0.00 0.00 66 1018.5
20210924144537 71 99 4.0 8.0 0.00 0.00 0.00 69 1018.3
20210924143035 69 75 3.0 6.0 0.00 0.00 0.00 74 1018.2
20210924141816 66 11 1.0 3.0 0.00 0.00 0.00 81 1018.3
20210924140153 64 11 1.0 4.0 0.00 0.00 0.00 85 1018.3
20210924134740 61 11 1.0 2.0 0.00 0.00 0.00 88 1018.1
20210924133146 59 11 1.0 4.0 0.00 0.00 0.00 90 1017.9
20210924131636 57 11 2.0 3.0 0.00 0.00 0.00 90 1018.0
20210924130146 56 11 2.0 5.0 0.00 0.00 0.00 90 1017.9
20210924124626 55 55 1.0 4.0 0.00 0.00 0.00 90 1017.8
20210924123216 55 146 1.0 3.0 0.00 0.00 0.00 90 1017.9
20210924121611 55 146 1.0 3.0 0.00 0.00 0.00 90 1017.7
20210924120101 55 146 1.0 3.0 0.00 0.00 0.00 90 1017.7
20210924114728 55 146 2.0 3.0 0.00 0.00 0.00 90 1017.4
20210924113133 55 146 0.0 0.0 0.00 0.00 0.00 89 1017.4
20210924111613 55 146 0.0 0.0 0.00 0.00 0.00 89 1017.3
20210924110040 56 146 0.0 0.0 0.00 0.00 0.00 89 1017.2
20210924104626 56 146 0.0 1.0 0.00 0.00 0.00 89 1016.9
20210924103056 56 146 1.0 2.0 0.00 0.00 0.00 88 1016.9
20210924101626 56 146 1.0 3.0 0.00 0.00 0.00 88 1016.8
20210924100050 56 146 1.0 3.0 0.00 0.00 0.00 88 1016.7
20210924094604 56 146 0.0 0.0 0.00 0.00 0.00 87 1016.6
20210924093034 57 146 0.0 0.0 0.00 0.00 0.00 86 1016.6
20210924083038 58 146 0.0 0.0 0.00 0.00 0.00 84 1016.5
20210924081518 59 146 0.0 0.0 0.00 0.00 0.00 84 1016.5
20210924080016 59 146 0.0 0.0 0.00 0.00 0.00 83 1016.6
20210924074541 59 146 0.0 0.0 0.00 0.00 0.00 82 1016.7
20210924073013 59 146 0.0 0.0 0.00 0.00 0.00 82 1016.6
20210924071521 59 146 0.0 0.0 0.00 0.00 0.00 81 1016.6
20210924070022 60 146 0.0 0.0 0.00 0.00 0.00 80 1016.7
20210924064507 60 146 0.0 0.0 0.00 0.00 0.00 80 1016.9
20210924063011 60 146 0.0 0.0 0.00 0.00 0.00 79 1016.9
20210924061504 61 146 0.0 0.0 0.00 0.00 0.00 78 1016.9
20210924060004 61 146 0.0 0.0 0.00 0.00 0.00 77 1016.9
20210924054503 61 146 0.0 0.0 0.00 0.00 0.00 76 1016.9
20210924053131 62 146 0.0 1.0 0.00 0.00 0.00 76 1016.9
20210924051625 62 146 1.0 2.0 0.00 0.00 0.00 74 1016.8
20210924050151 63 146 1.0 2.0 0.00 0.00 0.00 72 1016.7
20210924044618 64 146 0.0 2.0 0.00 0.00 0.00 69 1016.7
20210924043057 65 146 2.0 4.0 0.00 0.00 0.00 68 1016.6
20210924041621 65 145 1.0 3.0 0.00 0.00 0.00 67 1016.5
20210924040134 65 143 3.0 5.0 0.00 0.00 0.00 66 1016.4
20210924034741 65 134 3.0 5.0 0.00 0.00 0.00 64 1016.3
20210924033134 65 135 3.0 7.0 0.00 0.00 0.00 62 1016.0
20210924031647 66 129 4.0 5.0 0.00 0.00 0.00 59 1015.9
20210924030140 66 134 3.0 8.0 0.00 0.00 0.00 58 1015.8
20210924024555 66 134 3.0 5.0 0.00 0.00 0.00 55 1015.7
20210924023105 67 134 3.0 5.0 0.00 0.00 0.00 53 1015.5
20210924021755 68 134 2.0 4.0 0.00 0.00 0.00 52 1015.3
20210924020111 68 134 1.0 3.0 0.00 0.00 0.00 50 1015.2
20210924014617 68 134 2.0 4.0 0.00 0.00 0.00 49 1015.1
20210924013046 69 134 3.0 4.0 0.00 0.00 0.00 47 1014.8
20210924011632 71 134 2.0 4.0 0.00 0.00 0.00 45 1014.8
20210924010047 72 134 2.0 3.0 0.00 0.00 0.00 42 1014.7
20210924004617 73 134 2.0 3.0 0.00 0.00 0.00 40 1014.7
20210924003129 75 134 3.0 4.0 0.00 0.00 0.00 36 1014.6
20210924001646 79 134 2.0 4.0 0.00 0.00 0.00 32 1014.7
20210924000116 81 134 4.0 7.0 0.00 0.00 0.00 29 1014.6
20210923234544 83 128 3.0 9.0 0.00 0.00 0.00 28 1014.6
20210923233041 84 118 3.0 7.0 0.00 0.00 0.00 26 1014.5
20210923231546 86 33 1.0 2.0 0.00 0.00 0.00 24 1014.5
20210923230155 86 46 0.0 6.0 0.00 0.00 0.00 24 1014.6
20210923223059 86 74 3.0 6.0 0.00 0.00 0.00 24 1014.7
20210923221548 86 63 3.0 9.0 0.00 0.00 0.00 23 1014.7